Вернуться в каталог

FLOCK 4Q 29

АктивенНаукаPO
NORAD 58304·PAYLOAD·🇺🇸 United States

Запущен Nov 11, 2023 с Vandenberg Space Force Base

Loading…

Ближайшие Пролёты (ближайшие 24 часа)

TLE

СвежийSource: Space-Track

Эпоха: Sep 13, 2026, 19:42 UTC

1 58304U 23174BA  26256.82093809  .00233476  00000-0  13529-2 0  9994
2 58304  97.3851 352.8922 0004686 220.4655 139.6263 15.77900516159628

Отслеживайте FLOCK 4Q 29 в реальном времени с AllMySat

Download on the App Store